Time,TemperatureF,DewpointF,PressureIn,WindDirection,WindDirectionDegrees,WindSpeedMPH,WindSpeedGustMPH,Humidity,HourlyPrecipIn,Conditions,Clouds,dailyrainin,SoftwareType,DateUTC
2013-07-23 00:02:00,82.0,72.0,29.88,SE,139,0.0,0.0,71,0.00,,,0.00,,2013-07-23 05:02:00,
2013-07-23 00:11:00,82.0,72.0,29.88,SE,139,0.0,0.0,71,0.00,,,0.00,,2013-07-23 05:11:00,
2013-07-23 00:22:00,82.0,72.0,29.88,SE,141,0.0,0.0,71,0.00,,,0.00,,2013-07-23 05:22:00,
2013-07-23 00:33:00,82.0,72.0,29.88,SE,141,0.0,0.0,71,0.00,,,0.00,,2013-07-23 05:33:00,
2013-07-23 00:43:00,82.0,71.0,29.88,SSW,195,0.0,1.0,70,0.00,,,0.00,,2013-07-23 05:43:00,
2013-07-23 00:52:00,82.0,72.0,29.88,SW,214,0.0,1.0,71,0.00,,,0.00,,2013-07-23 05:52:00,
2013-07-23 01:01:00,82.0,72.0,29.88,SW,214,0.0,1.0,71,0.00,,,0.00,,2013-07-23 06:01:00,
2013-07-23 01:11:00,82.0,72.0,29.88,SW,226,0.0,1.0,73,0.00,,,0.00,,2013-07-23 06:11:00,
2013-07-23 01:22:00,81.0,72.0,29.87,SW,225,0.0,0.0,74,0.00,,,0.00,,2013-07-23 06:22:00,
2013-07-23 01:33:00,81.0,72.0,29.87,SW,225,0.0,0.0,74,0.00,,,0.00,,2013-07-23 06:33:00,
2013-07-23 01:42:00,80.0,71.0,29.87,SSW,200,0.0,0.0,75,0.00,,,0.00,,2013-07-23 06:42:00,
2013-07-23 01:52:00,80.0,72.0,29.87,SSW,200,0.0,0.0,76,0.00,,,0.00,,2013-07-23 06:52:00,
2013-07-23 02:01:00,80.0,72.0,29.87,SSW,200,0.0,0.0,76,0.00,,,0.00,,2013-07-23 07:01:00,
2013-07-23 02:11:00,80.0,71.0,29.87,SSW,208,0.0,0.0,75,0.00,,,0.00,,2013-07-23 07:11:00,
2013-07-23 02:21:00,81.0,72.0,29.87,SW,217,0.0,2.0,74,0.00,,,0.00,,2013-07-23 07:21:00,
2013-07-23 02:33:00,81.0,72.0,29.86,SW,221,0.0,2.0,73,0.00,,,0.00,,2013-07-23 07:33:00,
2013-07-23 02:42:00,81.0,72.0,29.86,SW,221,0.0,2.0,73,0.00,,,0.00,,2013-07-23 07:42:00,
2013-07-23 02:52:00,81.0,72.0,29.86,SW,219,0.0,2.0,73,0.00,,,0.00,,2013-07-23 07:52:00,
2013-07-23 03:01:00,81.0,72.0,29.86,SW,219,0.0,2.0,73,0.00,,,0.00,,2013-07-23 08:01:00,
2013-07-23 03:11:00,81.0,72.0,29.86,SW,231,0.0,2.0,73,0.00,,,0.00,,2013-07-23 08:11:00,
2013-07-23 03:21:00,81.0,72.0,29.86,SW,214,1.0,3.0,73,0.00,,,0.00,,2013-07-23 08:21:00,
2013-07-23 03:33:00,81.0,72.0,29.86,SW,214,1.0,3.0,73,0.00,,,0.00,,2013-07-23 08:33:00,
2013-07-23 03:43:00,82.0,72.0,29.86,WSW,246,1.0,5.0,72,0.00,,,0.00,,2013-07-23 08:43:00,
2013-07-23 03:52:00,82.0,72.0,29.85,SW,226,1.0,3.0,73,0.00,,,0.00,,2013-07-23 08:52:00,
2013-07-23 04:01:00,82.0,72.0,29.85,SW,226,1.0,3.0,73,0.00,,,0.00,,2013-07-23 09:01:00,
2013-07-23 04:11:00,82.0,72.0,29.85,SSW,207,1.0,3.0,73,0.00,,,0.00,,2013-07-23 09:11:00,
2013-07-23 04:22:00,81.0,72.0,29.86,SSW,193,0.0,3.0,74,0.00,,,0.00,,2013-07-23 09:22:00,
2013-07-23 04:33:00,81.0,72.0,29.86,SSW,193,0.0,3.0,74,0.00,,,0.00,,2013-07-23 09:33:00,
2013-07-23 04:42:00,81.0,72.0,29.86,SSW,204,1.0,2.0,75,0.00,,,0.00,,2013-07-23 09:42:00,
2013-07-23 04:53:00,81.0,73.0,29.86,South,177,0.0,3.0,76,0.00,,,0.00,,2013-07-23 09:53:00,
2013-07-23 05:02:00,81.0,73.0,29.86,South,177,0.0,3.0,76,0.00,,,0.00,,2013-07-23 10:02:00,
2013-07-23 05:11:00,80.0,72.0,29.86,SSW,212,1.0,3.0,76,0.00,,,0.00,,2013-07-23 10:11:00,
2013-07-23 05:22:00,80.0,72.0,29.86,SW,225,1.0,4.0,77,0.00,,,0.00,,2013-07-23 10:22:00,
2013-07-23 05:32:00,80.0,72.0,29.86,SW,225,1.0,4.0,77,0.00,,,0.00,,2013-07-23 10:32:00,
2013-07-23 05:44:00,80.0,72.0,29.87,SSW,203,0.0,3.0,77,0.00,,,0.00,,2013-07-23 10:44:00,
2013-07-23 05:52:00,79.0,72.0,29.87,SW,221,0.0,0.0,78,0.00,,,0.00,,2013-07-23 10:52:00,
2013-07-23 06:02:00,79.0,72.0,29.87,SW,221,0.0,0.0,78,0.00,,,0.00,,2013-07-23 11:02:00,
2013-07-23 06:12:00,79.0,72.0,29.88,ESE,121,0.0,1.0,79,0.00,,,0.00,,2013-07-23 11:12:00,
2013-07-23 06:22:00,79.0,72.0,29.88,SW,217,0.0,1.0,80,0.00,,,0.00,,2013-07-23 11:22:00,
2013-07-23 06:32:00,79.0,72.0,29.88,SW,217,0.0,1.0,80,0.00,,,0.00,,2013-07-23 11:32:00,
2013-07-23 06:43:00,78.0,72.0,29.88,SSE,165,0.0,0.0,81,0.00,,,0.00,,2013-07-23 11:43:00,
2013-07-23 06:52:00,78.0,72.0,29.88,SE,129,0.0,2.0,82,0.00,,,0.00,,2013-07-23 11:52:00,
2013-07-23 07:02:00,78.0,72.0,29.88,SE,129,0.0,2.0,82,0.00,,,0.00,,2013-07-23 12:02:00,
2013-07-23 07:11:00,78.0,72.0,29.89,SE,132,0.0,1.0,82,0.00,,,0.00,,2013-07-23 12:11:00,
2013-07-23 07:22:00,78.0,72.0,29.89,SE,146,0.0,1.0,82,0.00,,,0.00,,2013-07-23 12:22:00,
2013-07-23 07:33:00,78.0,72.0,29.89,SE,146,0.0,1.0,82,0.00,,,0.00,,2013-07-23 12:33:00,
2013-07-23 07:43:00,79.0,73.0,29.90,SSE,151,0.0,0.0,81,0.00,,,0.00,,2013-07-23 12:43:00,
2013-07-23 08:01:00,80.0,73.0,29.90,SW,218,0.0,1.0,80,0.00,,,0.00,,2013-07-23 13:01:00,
2013-07-23 08:11:00,81.0,73.0,29.90,WSW,250,0.0,2.0,78,0.00,,,0.00,,2013-07-23 13:11:00,
2013-07-23 08:22:00,82.0,74.0,29.91,SSW,207,1.0,4.0,77,0.00,,,0.00,,2013-07-23 13:22:00,
2013-07-23 08:32:00,82.0,74.0,29.91,SSW,207,1.0,4.0,77,0.00,,,0.00,,2013-07-23 13:32:00,
2013-07-23 08:43:00,82.0,74.0,29.91,SW,231,0.0,3.0,76,0.00,,,0.00,,2013-07-23 13:43:00,
2013-07-23 08:52:00,83.0,74.0,29.91,SSW,200,1.0,4.0,74,0.00,,,0.00,,2013-07-23 13:52:00,
2013-07-23 09:02:00,83.0,74.0,29.91,SSW,200,1.0,4.0,74,0.00,,,0.00,,2013-07-23 14:02:00,
2013-07-23 09:12:00,84.0,75.0,29.91,WSW,253,1.0,4.0,74,0.00,,,0.00,,2013-07-23 14:12:00,
2013-07-23 09:22:00,84.0,75.0,29.91,SW,218,0.0,3.0,74,0.00,,,0.00,,2013-07-23 14:22:00,
2013-07-23 09:32:00,84.0,75.0,29.91,SW,218,0.0,3.0,74,0.00,,,0.00,,2013-07-23 14:32:00,
2013-07-23 09:44:00,85.0,75.0,29.91,SW,226,2.0,4.0,72,0.00,,,0.00,,2013-07-23 14:44:00,
2013-07-23 09:53:00,86.0,75.0,29.92,SSW,212,1.0,3.0,71,0.00,,,0.00,,2013-07-23 14:53:00,
2013-07-23 10:03:00,86.0,75.0,29.92,SSW,212,1.0,3.0,71,0.00,,,0.00,,2013-07-23 15:03:00,
2013-07-23 10:11:00,87.0,76.0,29.92,SW,236,1.0,4.0,71,0.00,,,0.00,,2013-07-23 15:11:00,
2013-07-23 10:24:00,87.0,76.0,29.91,WSW,238,1.0,4.0,69,0.00,,,0.00,,2013-07-23 15:24:00,
2013-07-23 10:32:00,87.0,76.0,29.91,WSW,238,1.0,4.0,69,0.00,,,0.00,,2013-07-23 15:32:00,
2013-07-23 10:43:00,88.0,77.0,29.91,SW,231,0.0,4.0,70,0.00,,,0.00,,2013-07-23 15:43:00,
2013-07-23 10:52:00,89.0,77.0,29.91,SSW,208,0.0,4.0,69,0.00,,,0.00,,2013-07-23 15:52:00,
2013-07-23 11:01:00,89.0,77.0,29.91,SSW,208,0.0,4.0,69,0.00,,,0.00,,2013-07-23 16:01:00,
2013-07-23 11:12:00,90.0,78.0,29.91,SW,225,1.0,2.0,67,0.00,,,0.00,,2013-07-23 16:12:00,
2013-07-23 11:22:00,91.0,78.0,29.91,SSW,208,0.0,5.0,65,0.00,,,0.00,,2013-07-23 16:22:00,
2013-07-23 11:33:00,91.0,78.0,29.91,SSW,208,0.0,5.0,65,0.00,,,0.00,,2013-07-23 16:33:00,
2013-07-23 11:43:00,92.0,78.0,29.90,WSW,240,1.0,3.0,64,0.00,,,0.00,,2013-07-23 16:43:00,
2013-07-23 11:52:00,92.0,78.0,29.89,WSW,243,2.0,4.0,63,0.00,,,0.00,,2013-07-23 16:52:00,
2013-07-23 12:02:00,92.0,78.0,29.89,WSW,243,2.0,4.0,63,0.00,,,0.00,,2013-07-23 17:02:00,
2013-07-23 12:11:00,93.0,79.0,29.90,WSW,252,1.0,3.0,63,0.00,,,0.00,,2013-07-23 17:11:00,
2013-07-23 12:21:00,93.0,78.0,29.89,South,188,0.0,5.0,62,0.00,,,0.00,,2013-07-23 17:21:00,
2013-07-23 12:32:00,93.0,78.0,29.89,South,188,0.0,5.0,62,0.00,,,0.00,,2013-07-23 17:32:00,
2013-07-23 12:42:00,94.0,79.0,29.89,SW,221,2.0,5.0,62,0.00,,,0.00,,2013-07-23 17:42:00,
2013-07-23 12:53:00,94.0,78.0,29.88,SSW,201,1.0,3.0,60,0.00,,,0.00,,2013-07-23 17:53:00,
2013-07-23 13:02:00,94.0,78.0,29.88,SSW,201,1.0,3.0,60,0.00,,,0.00,,2013-07-23 18:02:00,
2013-07-23 13:12:00,95.0,79.0,29.89,SW,231,1.0,3.0,60,0.00,,,0.00,,2013-07-23 18:12:00,
2013-07-23 13:24:00,96.0,78.0,29.88,SSW,206,1.0,4.0,57,0.00,,,0.00,,2013-07-23 18:24:00,
2013-07-23 13:33:00,96.0,78.0,29.88,SSW,206,1.0,4.0,57,0.00,,,0.00,,2013-07-23 18:33:00,
2013-07-23 13:46:00,96.0,78.0,29.88,East,85,0.0,5.0,57,0.00,,,0.00,,2013-07-23 18:46:00,
2013-07-23 13:54:00,96.0,77.0,29.87,SSW,204,1.0,3.0,55,0.00,,,0.00,,2013-07-23 18:54:00,
2013-07-23 14:03:00,96.0,77.0,29.87,SSW,204,1.0,3.0,55,0.00,,,0.00,,2013-07-23 19:03:00,
2013-07-23 14:14:00,96.0,77.0,29.87,SW,217,1.0,3.0,55,0.00,,,0.00,,2013-07-23 19:14:00,
2013-07-23 14:33:00,97.0,78.0,29.86,SSW,195,1.0,4.0,55,0.00,,,0.00,,2013-07-23 19:33:00,
2013-07-23 14:46:00,97.0,76.0,29.85,SW,228,0.0,4.0,52,0.00,,,0.00,,2013-07-23 19:46:00,
2013-07-23 14:52:00,97.0,76.0,29.85,South,190,1.0,5.0,52,0.00,,,0.00,,2013-07-23 19:52:00,
2013-07-23 15:03:00,97.0,76.0,29.85,South,190,1.0,5.0,52,0.00,,,0.00,,2013-07-23 20:03:00,
2013-07-23 15:22:00,95.0,76.0,29.84,SW,227,0.0,3.0,54,0.00,,,0.00,,2013-07-23 20:22:00,
2013-07-23 15:34:00,95.0,76.0,29.84,SW,227,0.0,3.0,54,0.00,,,0.00,,2013-07-23 20:34:00,
2013-07-23 15:44:00,96.0,77.0,29.83,SW,218,1.0,4.0,55,0.00,,,0.00,,2013-07-23 20:44:00,
2013-07-23 15:54:00,96.0,77.0,29.82,SW,236,1.0,5.0,54,0.00,,,0.00,,2013-07-23 20:54:00,
2013-07-23 16:04:00,96.0,77.0,29.82,SW,236,1.0,5.0,54,0.00,,,0.00,,2013-07-23 21:04:00,
2013-07-23 16:13:00,96.0,76.0,29.82,SW,235,1.0,4.0,53,0.00,,,0.00,,2013-07-23 21:13:00,
2013-07-23 16:22:00,96.0,76.0,29.82,WSW,238,1.0,6.0,53,0.00,,,0.00,,2013-07-23 21:22:00,
2013-07-23 16:34:00,96.0,76.0,29.82,WSW,238,1.0,6.0,53,0.00,,,0.00,,2013-07-23 21:34:00,
2013-07-23 16:54:00,97.0,76.0,29.80,SW,231,2.0,4.0,52,0.00,,,0.00,,2013-07-23 21:54:00,
2013-07-23 17:04:00,97.0,76.0,29.80,SW,231,2.0,4.0,52,0.00,,,0.00,,2013-07-23 22:04:00,
2013-07-23 17:23:00,97.0,75.0,29.80,SSW,207,2.0,4.0,50,0.00,,,0.00,,2013-07-23 22:23:00,
2013-07-23 17:33:00,97.0,75.0,29.80,SSW,207,2.0,4.0,50,0.00,,,0.00,,2013-07-23 22:33:00,
2013-07-23 17:55:00,97.0,76.0,29.80,SW,229,1.0,5.0,51,0.00,,,0.00,,2013-07-23 22:55:00,
2013-07-23 18:04:00,97.0,76.0,29.80,SW,229,1.0,5.0,51,0.00,,,0.00,,2013-07-23 23:04:00,
2013-07-23 18:12:00,96.0,74.0,29.79,SSW,205,2.0,4.0,50,0.00,,,0.00,,2013-07-23 23:12:00,
2013-07-23 18:24:00,96.0,75.0,29.78,SW,227,1.0,6.0,51,0.00,,,0.00,,2013-07-23 23:24:00,
2013-07-23 18:35:00,96.0,75.0,29.78,SW,227,1.0,6.0,51,0.00,,,0.00,,2013-07-23 23:35:00,
2013-07-23 18:44:00,96.0,75.0,29.77,WSW,237,2.0,4.0,51,0.00,,,0.00,,2013-07-23 23:44:00,
2013-07-23 18:55:00,95.0,74.0,29.77,WSW,250,1.0,5.0,51,0.00,,,0.00,,2013-07-23 23:55:00,
2013-07-23 19:06:00,95.0,74.0,29.77,WSW,250,1.0,5.0,51,0.00,,,0.00,,2013-07-24 00:06:00,
2013-07-23 19:24:00,94.0,74.0,29.75,South,188,1.0,5.0,52,0.00,,,0.00,,2013-07-24 00:24:00,
2013-07-23 19:34:00,94.0,74.0,29.75,South,188,1.0,5.0,52,0.00,,,0.00,,2013-07-24 00:34:00,
2013-07-23 19:46:00,94.0,75.0,29.75,SW,225,0.0,4.0,55,0.00,,,0.00,,2013-07-24 00:46:00,
2013-07-23 19:53:00,93.0,75.0,29.76,SW,228,0.0,3.0,56,0.00,,,0.00,,2013-07-24 00:53:00,
2013-07-23 20:03:00,93.0,75.0,29.76,SW,228,0.0,3.0,56,0.00,,,0.00,,2013-07-24 01:03:00,
2013-07-23 20:13:00,93.0,75.0,29.76,SW,232,1.0,2.0,57,0.00,,,0.00,,2013-07-24 01:13:00,
2013-07-23 20:24:00,92.0,75.0,29.76,SW,221,0.0,2.0,58,0.00,,,0.00,,2013-07-24 01:24:00,
2013-07-23 20:33:00,92.0,75.0,29.76,SW,221,0.0,2.0,58,0.00,,,0.00,,2013-07-24 01:33:00,
2013-07-23 20:44:00,91.0,76.0,29.77,SSE,148,0.0,3.0,61,0.00,,,0.00,,2013-07-24 01:44:00,
2013-07-23 20:55:00,91.0,76.0,29.78,South,174,0.0,2.0,62,0.00,,,0.00,,2013-07-24 01:55:00,
2013-07-23 21:03:00,91.0,76.0,29.78,South,174,0.0,2.0,62,0.00,,,0.00,,2013-07-24 02:03:00,
2013-07-23 21:15:00,90.0,76.0,29.77,WSW,240,0.0,2.0,63,0.00,,,0.00,,2013-07-24 02:15:00,
2013-07-23 21:24:00,89.0,75.0,29.77,SSW,212,0.0,1.0,64,0.00,,,0.00,,2013-07-24 02:24:00,
2013-07-23 22:02:00,88.0,75.0,29.79,SW,226,0.0,2.0,65,0.00,,,0.00,,2013-07-24 03:02:00,
2013-07-23 22:13:00,87.0,74.0,29.80,SW,215,0.0,0.0,65,0.00,,,0.00,,2013-07-24 03:13:00,
2013-07-23 22:23:00,87.0,74.0,29.80,ESE,105,0.0,2.0,65,0.00,,,0.00,,2013-07-24 03:23:00,
2013-07-23 22:35:00,87.0,74.0,29.80,ESE,105,0.0,2.0,65,0.00,,,0.00,,2013-07-24 03:35:00,
2013-07-23 22:44:00,87.0,74.0,29.81,SE,133,0.0,1.0,66,0.00,,,0.00,,2013-07-24 03:44:00,
2013-07-23 22:53:00,86.0,74.0,29.80,SW,236,0.0,1.0,67,0.00,,,0.00,,2013-07-24 03:53:00,
2013-07-23 23:01:00,86.0,74.0,29.80,SW,236,0.0,1.0,67,0.00,,,0.00,,2013-07-24 04:01:00,
2013-07-23 23:11:00,86.0,74.0,29.81,SW,235,0.0,1.0,68,0.00,,,0.00,,2013-07-24 04:11:00,
2013-07-23 23:22:00,85.0,74.0,29.81,SE,134,0.0,0.0,69,0.00,,,0.00,,2013-07-24 04:22:00,
2013-07-23 23:32:00,85.0,74.0,29.81,SE,134,0.0,0.0,69,0.00,,,0.00,,2013-07-24 04:32:00,
2013-07-23 23:43:00,85.0,74.0,29.80,SE,140,0.0,2.0,69,0.00,,,0.00,,2013-07-24 04:43:00,
2013-07-23 23:52:00,84.0,73.0,29.80,SW,221,0.0,1.0,70,0.00,,,0.00,,2013-07-24 04:52:00,